Location: Lombard
(41.8800°N, 88.0080°W)
Time: 18:37:43
(UTC-06:00)

Vanguard 3 - Pass Details

Date: 10 December 2023
Orbit: 508 x 3239 km, 33.4° (Epoch: 23 February)

Event Time Altitude Azimuth Distance (km) Brightness Sun altitude
Rises 17:02:56 0° 202° (SSW) 7,171 12.7 -7.8°
Reaches altitude 10° 17:09:17 10° 191° (S) 6,148 12.1 -8.9°
Maximum altitude 17:22:48 25° 146° (SE) 4,584 10.8 -11.2°
Drops below altitude 10° 17:33:39 10° 100° (E) 4,923 10.6 -13.1°
Enters shadow 17:34:10 - 98° (E) 4,982 10.6 -13.2°
